Tracking 29489 objects as of 9-Sep-2024
HD Live streaming from Space Station
objects crossing your sky now

FENGYUN 1C DEB

Track FENGYUN 1C DEB now!
10-day predictions


NORAD ID: 32416
Int'l Code: 1999-025DAC
Perigee: 847.9 km
Apogee: 1,206.6 km
Inclination: 100.8 °
Period: 105.5 minutes
Semi major axis: 7398 km
RCS: 0.0112 m2 (small)
Launch date: May 10, 1999
Source: People's Republic of China (PRC)
Launch site: Taiyaun Space Center, China (TSC)

Note: This is SATELLITE DEBRIS
Your satellite tracking list
Your tracking list is empty




NASA's NSSDC Master Catalog

Two Line Element Set (TLE):
1 32416U 99025DAC 24231.90018581  .00002209  00000-0  23166-2 0  9998
2 32416 100.8257 260.3402 0242401   5.5108 115.3516 13.64303533848597
Source of the keplerian elements: AFSPC